User: anonymous   Login
Location: Unspecified
(0.0000°N, 0.0000°E)
Time: 08:58:12
(UTC+00:00)
Language:

MUOS 4 - Orbit

View from above orbital plane
View from above orbital plane
View from above satellite
View from above satellite

Ground track
Ground track

The orbit data is extracted from the following two-line orbital elements,

1 40887U 15044A   17192.90563521 0.00000000  00000-0  00000-0 0    05
2 40887   4.2896 330.9873 0053719   2.5626 357.5167  1.00270000    01
Epoch (UTC): 11 July 2017 21:44:06
Eccentricity: 0.0053719
inclination: 4.2896°
perigee height: 35560 km
apogee height: 36013 km
right ascension of ascending node: 330.9873°
argument of perigee: 2.5626°
revolutions per day: 1.00270000
mean anomaly at epoch: 357.5167°
orbit number at epoch: 0

The dashed part of the orbit path shows where the satellite is in the earth's shadow,  

DLR